Tracking 18033 objects as of 23-March-2017
HD Live streaming from Space Station
objects crossing your sky now

METEOR 1-11 DEB

Track METEOR 1-11 DEB now!
10-day predictions


NORAD ID: 36305
Int'l Code: 1972-022D
Perigee: 758.5 km
Apogee: 785.6 km
Inclination: 81.2 °
Period: 100.1 minutes
Semi major axis: 7143 km
RCS: 0.003 m2 (small)
Launch date: March 30, 1972
Source: Commonwealth of Independent States (former USSR) (CIS)
Launch site: PLESETSK MISSILE AND SPACE COMPLEX (PKMTR)

Note: This is SATELLITE DEBRIS
Your satellite tracking list
Your tracking list is empty





NASA's NSSDC Master Catalog

Two Line Element Set (TLE):
1 36305U 72022D   17076.78483549 +.00002125 +00000-0 +69624-3 0  9999
2 36305 081.2041 249.0262 0019013 232.5822 127.3634 14.38062509448840
Source of the keplerian elements: AFSPC